• En España
  • Lista de países
  • Para 7 días
  • Temperatura del agua
  • Mapa Satelital
  • El tiempo en el mapa
  • Informadores
  • user-avatar
    Iniciar sesión

    Tiempo cada hora Brussels

    Hoy, 17 Octubre, Miércoles

    Tiempo Temperatura Precipitaciones Viento Presión Humedad
    00:00 +15°C° 0 mm 2 mps 760 mmHg 75%
    01:00 +15°C° 0 mm 2 mps 760 mmHg 77%
    02:00 +15°C° 0 mm 1 mps 760 mmHg 80%
    03:00 +14°C° 0 mm 1 mps 760 mmHg 82%
    04:00 +14°C° 0 mm 1 mps 760 mmHg 84%
    05:00 +14°C° 0 mm 1 mps 760 mmHg 86%
    06:00 +14°C° 0 mm 1 mps 760 mmHg 87%
    07:00 +15°C° 0 mm 1 mps 760 mmHg 83%
    08:00 +16°C° 0 mm 1 mps 761 mmHg 79%
    09:00 +19°C° 0 mm 1 mps 761 mmHg 74%
    10:00 +20°C° 0 mm 1 mps 761 mmHg 71%
    11:00 +21°C° 0 mm 1 mps 761 mmHg 67%
    12:00 +22°C° 0 mm 1 mps 761 mmHg 63%
    13:00 +22°C° 0 mm 1 mps 761 mmHg 64%
    14:00 +20°C° 0 mm 2 mps 760 mmHg 66%
    15:00 +20°C° 0 mm 2 mps 760 mmHg 67%
    16:00 +19°C° 0 mm 2 mps 761 mmHg 73%
    17:00 +17°C° 0 mm 2 mps 761 mmHg 79%
    18:00 +14°C° 0 mm 3 mps 761 mmHg 85%
    19:00 +15°C° 0 mm 2 mps 761 mmHg 86%
    20:00 +14°C° 0 mm 2 mps 762 mmHg 87%
    21:00 +14°C° 0 mm 2 mps 762 mmHg 89%
    22:00 +13°C° 0 mm 2 mps 762 mmHg 89%
    23:00 +13°C° 0 mm 2 mps 762 mmHg 90%

    Mañana, 18 Octubre, Jueves

    Tiempo Temperatura Precipitaciones Viento Presión Humedad
    00:00 +13°C° 0 mm 2 mps 762 mmHg 91%
    01:00 +13°C° 0 mm 2 mps 763 mmHg 92%
    02:00 +12°C° 0 mm 2 mps 763 mmHg 92%
    03:00 +12°C° 0 mm 2 mps 763 mmHg 93%
    04:00 +12°C° 0 mm 2 mps 763 mmHg 93%
    05:00 +12°C° 0 mm 2 mps 763 mmHg 94%
    06:00 +12°C° 0 mm 2 mps 763 mmHg 95%
    07:00 +12°C° 0 mm 3 mps 763 mmHg 90%
    08:00 +13°C° 0 mm 3 mps 764 mmHg 86%
    09:00 +14°C° 0 mm 4 mps 764 mmHg 82%
    10:00 +15°C° 0 mm 4 mps 764 mmHg 78%
    11:00 +17°C° 0 mm 4 mps 764 mmHg 74%
    12:00 +18°C° 0 mm 4 mps 764 mmHg 69%
    13:00 +18°C° 0 mm 4 mps 763 mmHg 69%
    14:00 +18°C° 0 mm 4 mps 763 mmHg 70%
    15:00 +18°C° 0 mm 4 mps 763 mmHg 70%
    16:00 +17°C° 0 mm 4 mps 763 mmHg 72%
    17:00 +15°C° 0 mm 4 mps 764 mmHg 75%
    18:00 +14°C° 0 mm 3 mps 764 mmHg 77%
    19:00 +14°C° 0 mm 3 mps 764 mmHg 79%
    20:00 +13°C° 0 mm 3 mps 764 mmHg 82%
    21:00 +13°C° 0 mm 3 mps 764 mmHg 84%
    22:00 +12°C° 0 mm 3 mps 764 mmHg 86%
    23:00 +12°C° 0 mm 3 mps 764 mmHg 88%

    Pasado mañana, 19 Octubre, Viernes

    Tiempo Temperatura Precipitaciones Viento Presión Humedad
    00:00 +11°C° 0 mm 3 mps 764 mmHg 91%
    01:00 +11°C° 0 mm 3 mps 764 mmHg 92%
    02:00 +10°C° 0 mm 3 mps 764 mmHg 92%
    03:00 +10°C° 0 mm 3 mps 764 mmHg 93%
    04:00 +10°C° 0 mm 2 mps 764 mmHg 93%
    05:00 +9°C° 0 mm 2 mps 764 mmHg 94%
    06:00 +9°C° 0 mm 2 mps 764 mmHg 94%
    07:00 +10°C° 0 mm 2 mps 764 mmHg 89%
    08:00 +12°C° 0 mm 3 mps 765 mmHg 84%
    09:00 +13°C° 0 mm 3 mps 765 mmHg 80%
    10:00 +16°C° 0 mm 3 mps 765 mmHg 75%
    11:00 +17°C° 0 mm 3 mps 765 mmHg 70%
    12:00 +18°C° 0 mm 3 mps 765 mmHg 65%
    13:00 +19°C° 0 mm 2 mps 764 mmHg 65%
    14:00 +19°C° 0 mm 2 mps 764 mmHg 65%
    15:00 +19°C° 0 mm 2 mps 764 mmHg 64%
    16:00 +17°C° 0 mm 3 mps 765 mmHg 70%
    17:00 +16°C° 0 mm 3 mps 765 mmHg 75%
    18:00 +13°C° 0 mm 3 mps 765 mmHg 80%
    19:00 +13°C° 0 mm 3 mps 766 mmHg 80%
    20:00 +12°C° 0 mm 3 mps 766 mmHg 81%
    21:00 +11°C° 0 mm 3 mps 766 mmHg 82%
    22:00 +11°C° 0 mm 3 mps 766 mmHg 81%
    23:00 +10°C° 0 mm 2 mps 767 mmHg 81%

    20 Octubre, Sábado

    Tiempo Temperatura Precipitaciones Viento Presión Humedad
    00:00 +10°C° 0 mm 2 mps 767 mmHg 81%
    01:00 +9°C° 0 mm 2 mps 767 mmHg 81%
    02:00 +9°C° 0 mm 3 mps 767 mmHg 81%
    03:00 +8°C° 0 mm 3 mps 768 mmHg 80%
    04:00 +8°C° 0 mm 3 mps 768 mmHg 81%
    05:00 +8°C° 0 mm 2 mps 768 mmHg 82%
    06:00 +7°C° 0 mm 2 mps 768 mmHg 83%
    07:00 +8°C° 0 mm 3 mps 769 mmHg 78%
    08:00 +10°C° 0 mm 3 mps 769 mmHg 73%
    09:00 +11°C° 0 mm 4 mps 770 mmHg 68%
    10:00 +13°C° 0 mm 4 mps 770 mmHg 62%
    11:00 +14°C° 0 mm 3 mps 770 mmHg 56%
    12:00 +16°C° 0 mm 3 mps 770 mmHg 50%
    13:00 +16°C° 0 mm 3 mps 769 mmHg 50%
    14:00 +16°C° 0 mm 3 mps 769 mmHg 50%
    15:00 +16°C° 0 mm 3 mps 769 mmHg 50%
    16:00 +14°C° 0 mm 3 mps 769 mmHg 54%
    17:00 +12°C° 0 mm 3 mps 769 mmHg 58%
    18:00 +10°C° 0 mm 3 mps 770 mmHg 62%
    19:00 +10°C° 0 mm 3 mps 770 mmHg 64%
    20:00 +9°C° 0 mm 2 mps 770 mmHg 66%
    21:00 +8°C° 0 mm 2 mps 770 mmHg 67%
    22:00 +8°C° 0 mm 2 mps 770 mmHg 70%
    23:00 +7°C° 0 mm 2 mps 770 mmHg 72%

    21 Octubre, Domingo

    Tiempo Temperatura Precipitaciones Viento Presión Humedad
    00:00 +8°C° 0 mm 1 mps 770 mmHg 74%
    01:00 +8°C° 0 mm 1 mps 769 mmHg 75%
    02:00 +7°C° 0 mm 1 mps 769 mmHg 77%
    03:00 +7°C° 0 mm 1 mps 769 mmHg 79%
    04:00 +7°C° 0 mm 1 mps 769 mmHg 80%
    05:00 +7°C° 0 mm 1 mps 769 mmHg 81%
    06:00 +7°C° 0 mm 1 mps 769 mmHg 82%
    07:00 +8°C° 0 mm 1 mps 769 mmHg 75%
    08:00 +10°C° 0 mm 1 mps 769 mmHg 68%
    09:00 +12°C° 0 mm 1 mps 769 mmHg 61%
    10:00 +14°C° 0 mm 1 mps 768 mmHg 56%
    11:00 +14°C° 0 mm 0 mps 768 mmHg 51%
    12:00 +16°C° 0 mm 0 mps 768 mmHg 46%
    13:00 +18°C° 0 mm 1 mps 768 mmHg 47%
    14:00 +18°C° 0 mm 1 mps 767 mmHg 48%
    15:00 +18°C° 0 mm 1 mps 767 mmHg 49%
    16:00 +15°C° 0 mm 1 mps 767 mmHg 54%
    17:00 +13°C° 0 mm 1 mps 767 mmHg 59%
    18:00 +11°C° 0 mm 1 mps 767 mmHg 64%
    19:00 +11°C° 0 mm 1 mps 768 mmHg 67%
    20:00 +11°C° 0 mm 1 mps 768 mmHg 69%
    21:00 +10°C° 0 mm 1 mps 768 mmHg 71%
    22:00 +11°C° 0 mm 1 mps 768 mmHg 74%
    23:00 +10°C° 0 mm 2 mps 768 mmHg 76%

    22 Octubre, Lunes

    Tiempo Temperatura Precipitaciones Viento Presión Humedad
    00:00 +12°C° 0 mm 2 mps 769 mmHg 78%
    01:00 +11°C° 0.1 mm 3 mps 769 mmHg 79%
    02:00 +11°C° 0.1 mm 4 mps 769 mmHg 80%
    03:00 +12°C° 0.1 mm 5 mps 770 mmHg 82%
    04:00 +11°C° 0 mm 4 mps 770 mmHg 82%
    05:00 +10°C° 0 mm 4 mps 770 mmHg 82%
    06:00 +8°C° 0 mm 4 mps 771 mmHg 81%
    07:00 +9°C° 0 mm 5 mps 771 mmHg 76%
    08:00 +10°C° 0 mm 5 mps 772 mmHg 71%
    09:00 +12°C° 0 mm 5 mps 772 mmHg 66%
    10:00 +12°C° 0 mm 5 mps 773 mmHg 62%
    11:00 +13°C° 0 mm 5 mps 773 mmHg 58%
    12:00 +14°C° 0 mm 5 mps 773 mmHg 55%
    13:00 +13°C° 0 mm 5 mps 773 mmHg 55%
    14:00 +13°C° 0 mm 5 mps 773 mmHg 56%
    15:00 +13°C° 0 mm 5 mps 773 mmHg 57%
    16:00 +11°C° 0 mm 4 mps 773 mmHg 62%
    17:00 +10°C° 0 mm 3 mps 773 mmHg 67%
    18:00 +9°C° 0 mm 3 mps 773 mmHg 72%
    19:00 +8°C° 0 mm 2 mps 774 mmHg 74%
    20:00 +8°C° 0 mm 2 mps 774 mmHg 75%
    21:00 +8°C° 0 mm 2 mps 774 mmHg 77%
    22:00 +8°C° 0 mm 2 mps 774 mmHg 77%
    23:00 +9°C° 0 mm 1 mps 773 mmHg 78%
    Mostrar más